User: anonymous   Login
Location: Peebles
(55.6412°N, 3.1714°W)
Time: 13:17:48
(UTC+00:00)
Language:

USA 186 - Orbit

View from above orbital plane
View from above orbital plane
View from above satellite
View from above satellite

Ground track
Ground track

The orbit data is extracted from the following two-line orbital elements,

1 28888U 05042A   21283.81635273 0.00028200  00000-0  11130-3 0    00
2 28888  96.8659 320.8542 0121793 229.3587 130.6411 15.76009396    04
Epoch (UTC): 10 October 2021 19:35:32
Eccentricity: 0.0121793
inclination: 96.8659°
perigee height: 260 km
apogee height: 423 km
right ascension of ascending node: 320.8542°
argument of perigee: 229.3587°
revolutions per day: 15.76009396
mean anomaly at epoch: 130.6411°
orbit number at epoch: 0

The dashed part of the orbit path shows where the satellite is in the earth's shadow,  

DLR